Temperature
18 18 18 17 17 17 17 17 17 17 17 17 17 17 17 17 17 17 17 17 17 17 17 17 17 16 16 16 16 16 16 16 16 16 16 16 16 16 16 16 15 15 15
18 18 18 17 17 17 17 17 17 17 17 17 17 17 17 17 17 17 17 17 17 17 17 17 17 16 16 16 16 16 16 16 16 16 16 16 16 16 16 16 15 15 15
18 18 18 18 17 17 17 17 17 17 17 17 17 17 17 17 17 17 17 17 17 17 17 17 17 16 16 16 16 16 16 16 16 16 16 16 16 16 16 15 15 15 15
18 18 18 18 17 17 17 17 17 17 17 17 17 17 17 17 17 17 17 17 17 17 17 17 16 16 16 16 16 16 16 16 16 16 16 16 16 16 16 15 15 15 15
18 18 17 17 17 17 17 17 17 17 17 17 17 17 17 17 17 17 17 17 17 17 17 17 16 16 16 16 16 16 16 16 16 16 16 16 16 16 16 15 15 15 15
18 18 18 17 17 17 17 17 17 17 17 17 17 17 17 17 17 17 17 17 17 17 17 17 17 17 16 16 16 16 16 16 16 16 16 16 16 16 16 15 15 15 15
18 18 17 17 17 17 17 17 17 17 17 17 17 17 17 17 17 17 17 17 17 17 17 17 17 17 17 16 16 16 16 16 16 16 16 16 16 16 15 15 15 15 15
18 18 17 17 17 17 17 17 17 17 17 17 17 17 16 17 17 17 17 17 17 17 17 17 16 16 16 16 16 16 16 16 16 16 16 16 16 16 15 15 15 15 15
17 17 17 17 17 17 17 17 17 17 17 17 17 17 16 16 16 17 17 17 17 17 17 17 16 16 16 16 16 16 16 16 16 16 16 16 16 15 15 15 15 15 15
18 17 17 17 17 17 17 17 17 17 17 17 17 17 16 16 16 16 16 16 16 16 16 16 16 16 16 16 16 16 16 16 16 16 16 16 15 15 15 15 15 15 14
18 17 17 17 17 17 17 17 17 17 17 17 17 16 16 16 16 16 16 16 16 16 16 16 16 16 16 16 16 16 16 16 16 16 15 15 15 15 15 15 14 14 14
18 18 18 17 17 17 17 17 17 17 17 16 16 16 16 16 16 16 16 16 16 16 16 16 16 16 16 16 16 16 16 15 15 15 15 15 15 15 15 14 14 14 14
18 18 18 17 17 17 17 17 17 17 17 16 16 16 16 16 16 16 16 15 15 15 16 16 16 16 15 15 15 15 15 15 15 15 15 15 15 15 15 14 14 14 14
18 18 18 17 17 17 17 17 17 17 17 16 16 16 16 16 16 16 16 15 15 15 15 15 15 15 15 15 15 15 15 15 15 15 15 15 14 14 14 14 14 14 14
18 18 18 18 17 17 17 17 17 17 16 16 16 16 16 16 16 15 15 15 15 15 15 15 15 15 15 15 15 15 15 15 14 14 14 14 14 14 14 14 14 14 14
18 18 18 17 17 17 17 17 17 16 16 16 16 16 16 16 15 15 15 15 15 15 14 14 14 14 14 14 14 14 14 14 14 14 14 14 14 13 13 13 13 13 13
18 18 17 17 17 17 17 17 16 16 16 16 16 16 15 15 15 15 15 15 15 15 14 14 14 14 14 14 14 14 14 14 14 14 13 13 13 13 13 13 13 13 13
18 17 17 17 17 17 17 16 16 16 16 16 16 16 15 15 15 15 15 15 14 14 14 14 14 13 13 13 13 13 13 13 13 13 13 13 13 13 12 12 12 12 12
17 17 17 17 17 17 16 16 16 16 16 16 16 15 15 15 15 15 14 14 14 14 14 14 13 13 13 12 12 12 12 12 12 12 12 12 12 12 12 12 12 12 12
17 17 17 17 17 16 16 16 16 15 15 15 15 15 15 15 14 14 14 14 14 14 13 13 13 12 12 12 12 12 12 12 12 12 12 12 12 11 11 11 11 11 11
17 17 17 17 16 16 16 16 16 15 15 15 15 15 15 14 14 14 14 14 14 13 13 13 12 12 12 12 12 11 11 11 11 11 11 11 11 11 11 11 11 11 11
17 17 16 16 16 16 16 15 15 15 15 15 15 15 14 14 14 14 14 13 13 13 13 13 12 12 12 12 11 11 11 11 10 10 10 10 10 10 10 10 10 10 10
17 17 16 16 16 15 15 15 15 15 15 15 14 14 14 14 14 14 13 13 13 13 12 12 12 12 12 11 11 11 11 11 10 10 10 10 10 10 10 10 10 10 10
17 16 16 16 15 15 15 15 14 14 14 14 14 14 14 13 13 13 13 13 13 12 12 12 12 12 11 11 11 11 10 10 10 10 10 9 10 10 10 10 10 9 9
16 16 16 15 15 15 14 14 14 14 14 14 13 13 13 13 13 13 13 13 12 12 12 12 11 11 11 11 11 10 10 10 10 10 9 9 9 9 10 9 9 9 9
16 15 15 15 14 14 14 14 14 13 13 13 13 13 13 13 12 12 12 12 12 12 11 11 11 11 11 10 10 10 10 10 9 9 9 9 9 9 9 9 9 9 9
Wind_Speed
2 1 1 1 1 1 2 2 2 2 2 1 1 2 3 4 5 5 6 9 10 11 11 11 11 10 10 10 9 9 9 9 9 9 9 9 9 8 8 8 8 8 7
3 2 1 1 1 2 2 2 2 2 1 1 1 2 3 3 4 5 5 7 9 11 11 11 11 11 11 11 11 11 10 10 10 10 10 10 9 9 9 9 9 9 9
4 4 2 2 2 2 2 2 2 2 1 1 1 1 2 3 4 4 5 5 6 9 11 12 12 12 13 13 13 12 12 12 12 11 11 12 11 11 10 10 10 10 9
6 4 2 2 3 3 2 2 1 1 1 1 1 0 1 2 3 4 4 5 5 6 8 11 12 12 13 14 14 14 14 14 14 14 13 13 13 12 12 12 12 12 11
6 5 3 3 4 3 2 2 2 2 2 2 1 1 1 1 2 3 4 5 6 6 6 8 11 13 13 14 14 14 15 15 15 15 15 14 14 14 14 14 14 13 13
6 5 4 3 4 2 2 2 2 2 2 2 1 0 0 1 1 2 3 4 5 6 6 6 7 9 12 13 14 14 14 14 15 15 15 15 15 15 15 15 14 14 13
5 5 3 2 3 3 3 3 2 3 2 2 1 1 2 1 1 1 2 2 3 4 5 5 6 6 7 10 12 14 14 15 15 15 15 15 15 15 15 15 15 14 14
5 5 4 3 3 2 3 3 3 2 2 3 2 1 1 2 1 1 0 1 2 2 3 4 5 6 6 6 6 10 12 14 14 14 14 14 14 15 15 15 15 14 14
4 4 4 3 3 3 3 3 4 4 3 2 2 3 2 2 1 1 0 1 1 1 2 3 4 5 6 6 6 7 9 10 11 12 13 13 14 14 15 14 14 14 13
3 4 4 4 3 2 3 3 3 3 3 3 2 2 2 3 2 1 1 1 1 2 2 2 2 3 4 4 5 7 8 9 10 10 11 12 11 12 13 13 14 13 13
3 3 4 4 3 3 3 3 2 3 3 3 3 2 2 1 2 2 2 2 1 1 2 2 2 2 3 4 4 5 6 7 8 9 10 10 10 11 11 12 13 13 13
1 2 3 3 3 3 3 3 3 3 3 3 3 3 3 2 3 3 3 3 2 2 1 1 1 1 2 3 3 3 4 4 5 6 7 8 9 9 9 10 10 11 11
2 2 2 3 2 3 3 3 2 3 3 3 4 4 4 3 2 3 3 2 2 1 1 0 1 1 1 1 2 3 3 3 3 3 4 5 5 6 7 7 8 8 9
3 3 3 3 3 3 2 2 2 2 2 3 4 3 3 3 3 3 3 3 2 2 1 2 0 0 1 1 1 1 1 2 2 2 3 3 4 4 4 5 6 6 6
3 3 3 3 2 2 2 2 2 2 1 2 2 2 2 2 3 3 3 3 3 3 3 2 1 1 1 1 1 1 0 1 1 0 1 1 2 2 2 3 3 3 3
2 3 2 2 1 1 1 1 1 1 2 2 2 2 2 2 2 2 3 2 3 3 3 1 1 1 1 1 2 2 2 2 2 2 2 1 1 1 1 2 2 3 3
3 3 3 2 2 1 1 1 0 1 2 2 2 2 2 2 2 2 2 2 2 3 3 1 0 0 1 1 3 3 3 3 3 3 3 2 2 2 2 2 2 3 3
3 3 3 3 2 1 1 1 1 1 2 2 2 2 2 1 1 2 2 2 2 3 3 3 1 0 1 1 2 2 3 4 3 4 4 3 3 3 2 2 3 3 3
3 3 3 3 2 2 1 1 1 1 1 1 2 2 2 2 2 1 2 2 2 2 2 3 2 1 0 1 2 2 3 3 3 4 4 4 4 4 3 3 3 3 3
3 3 2 2 2 1 1 1 1 1 0 0 0 1 1 2 2 2 2 2 2 2 3 3 2 1 1 0 1 1 1 2 2 3 3 3 4 4 4 3 3 3 3
3 3 3 2 2 1 1 1 1 1 1 0 0 0 0 1 2 2 2 3 3 3 3 3 2 2 1 1 1 0 0 1 1 1 2 2 2 2 2 2 3 3 2
3 3 3 2 1 0 0 2 2 2 1 1 0 0 0 0 1 2 2 3 4 4 4 3 2 3 2 2 1 1 1 0 1 1 1 2 2 1 1 1 1 2 1
3 3 2 2 1 0 0 1 2 2 2 1 1 0 0 1 1 1 2 2 3 3 4 4 4 4 4 4 3 2 2 1 1 1 1 1 1 2 2 1 1 0 1
3 3 2 2 1 1 0 2 3 2 2 1 1 1 1 1 1 2 3 3 2 1 1 2 3 3 3 3 4 3 2 1 0 0 1 1 2 2 2 2 2 2 2
3 2 2 2 1 1 1 2 3 2 2 1 1 1 1 1 2 3 4 3 3 2 3 3 3 2 3 4 5 3 2 1 1 1 1 1 1 2 2 2 2 3 3
3 3 2 1 1 1 1 1 3 2 2 1 1 2 3 3 3 4 4 3 3 1 2 3 3 3 3 4 5 4 3 2 1 1 1 1 1 1 1 1 2 2 3
Wind_Direction
159 158 154 140 142 138 133 122 115 109 101 101 139 162 170 177 187 193 198 201 203 202 200 198 194 193 194 193 195 197 198 197 197 196 195 195 193 194 194 191 191 190 191
182 181 183 190 204 182 167 154 144 136 130 133 149 175 188 192 195 201 208 211 213 210 204 204 204 203 203 204 206 207 208 208 206 204 205 205 206 206 205 204 204 205 204
189 183 179 196 216 196 171 144 136 134 147 136 139 170 187 197 195 204 207 212 218 218 213 212 212 213 213 213 214 216 217 217 215 213 213 214 213 214 215 214 213 214 213
197 185 186 208 210 186 168 159 165 149 156 149 155 209 181 191 206 210 209 212 217 222 223 224 221 220 222 223 223 223 222 221 220 220 220 220 218 219 220 219 220 219 219
203 191 199 212 189 164 172 194 175 165 169 170 172 186 201 215 218 215 212 218 219 223 229 237 233 228 228 230 231 230 227 226 226 225 226 227 225 224 222 223 225 224 224
204 195 203 204 177 164 185 187 177 156 165 169 163 75 352 263 245 233 230 227 226 231 235 242 242 240 237 237 237 236 232 230 228 228 228 229 228 226 225 226 226 227 226
205 193 200 189 176 186 197 183 173 160 166 149 114 27 360 343 276 253 226 218 230 236 234 235 238 240 244 246 243 240 238 235 232 230 229 230 231 230 229 228 226 226 228
203 197 191 192 184 187 185 182 175 170 184 169 149 135 330 341 356 310 224 211 227 222 230 239 239 239 240 242 249 246 242 239 238 234 233 231 230 228 228 228 227 227 228
202 196 194 187 182 183 197 196 187 181 194 197 178 164 174 223 285 330 310 238 229 228 236 240 245 245 241 238 244 250 246 242 243 242 238 235 231 228 226 224 224 225 225
194 191 195 191 184 187 207 213 197 192 180 200 205 208 200 180 192 267 308 284 253 251 256 256 260 252 246 243 242 246 247 244 243 246 243 238 232 228 226 224 225 226 226
203 202 202 197 193 195 209 213 202 198 193 197 199 195 203 209 207 210 254 274 286 269 258 256 255 259 261 248 243 252 251 246 243 245 245 242 239 237 234 233 232 233 231
218 215 205 200 199 200 210 216 209 205 206 202 206 200 193 198 204 204 229 252 265 272 267 256 248 251 260 256 242 242 245 246 241 243 245 246 243 241 239 239 240 241 236
216 227 209 203 205 210 209 203 203 211 208 210 217 222 218 220 203 198 204 232 253 270 255 238 252 255 272 274 264 247 244 241 238 239 240 243 244 243 244 244 244 240 237
213 213 201 199 198 207 207 198 212 224 219 223 228 223 224 227 207 200 196 196 236 252 238 247 316 46 354 356 337 286 259 234 225 234 236 236 238 237 241 246 245 239 230
206 191 180 174 184 203 205 197 218 228 211 234 234 227 227 231 213 209 200 191 196 229 246 224 208 29 26 29 12 48 97 85 94 107 195 205 211 215 219 223 227 218 210
189 165 159 160 165 176 187 180 215 221 198 233 226 218 232 234 209 202 199 200 199 207 231 227 228 343 42 35 29 44 54 55 74 72 84 118 144 157 162 163 162 166 170
174 168 172 161 154 149 151 149 203 220 223 244 228 216 238 224 205 199 185 185 189 186 212 233 231 12 59 52 41 44 48 59 68 75 80 87 98 103 111 126 133 145 160
170 165 160 150 155 146 133 149 205 233 231 237 232 213 230 199 192 191 182 191 200 194 187 196 205 135 66 71 56 49 48 53 63 66 64 69 79 81 89 108 124 136 143
155 149 145 149 152 147 145 174 183 215 218 226 217 202 206 177 187 189 184 190 194 186 176 171 175 143 87 86 56 43 39 38 51 52 51 61 69 73 73 87 107 125 135
151 145 138 140 140 140 155 186 174 164 152 145 174 183 193 191 200 194 188 191 176 165 153 149 145 145 142 127 110 56 13 11 17 24 43 48 57 59 61 72 83 99 117
149 140 127 118 116 133 180 180 173 167 158 137 70 186 162 165 172 179 185 187 174 168 160 158 157 152 167 173 196 188 254 339 351 14 19 23 32 37 35 51 78 84 91
134 127 127 127 112 113 123 151 151 151 147 154 232 292 21 182 152 142 143 161 167 169 172 167 175 186 205 203 177 167 161 302 294 321 316 332 357 342 350 11 57 78 94
147 139 138 140 157 275 93 150 154 150 144 157 166 140 86 65 114 122 123 121 127 143 166 169 182 199 200 198 184 187 201 218 250 251 246 280 309 309 303 297 290 252 210
156 159 162 167 163 274 157 154 150 148 125 115 117 136 136 72 97 122 118 105 95 93 166 175 190 199 197 188 191 194 189 167 314 277 222 257 285 289 293 280 261 246 242
162 171 170 170 178 258 226 164 152 142 126 98 78 85 103 93 82 116 120 113 87 53 63 84 104 124 141 150 151 133 131 144 259 275 235 248 271 291 290 276 270 253 250
162 158 145 142 168 240 235 158 152 149 138 111 60 57 65 76 88 107 120 121 107 70 72 74 77 83 103 126 145 162 167 173 193 230 208 218 235 273 277 270 268 264 257
Height
1562 1563 1564 1565 1566 1567 1568 1569 1570 1571 1572 1573 1574 1574 1575 1575 1576 1576 1577 1577 1577 1578 1578 1579 1579 1580 1581 1582 1583 1584 1584 1585 1586 1587 1588 1588 1589 1590 1591 1591 1592 1593 1594
1563 1564 1565 1566 1567 1568 1569 1570 1571 1571 1572 1573 1574 1574 1575 1575 1576 1576 1576 1577 1577 1577 1578 1579 1579 1580 1581 1581 1582 1583 1584 1585 1585 1586 1587 1587 1588 1589 1590 1590 1591 1592 1592
1563 1564 1565 1566 1567 1568 1569 1570 1570 1571 1572 1573 1573 1574 1574 1574 1575 1575 1576 1576 1576 1577 1577 1578 1578 1579 1580 1581 1581 1582 1582 1583 1584 1585 1585 1586 1587 1588 1588 1589 1590 1591 1591
1563 1564 1565 1565 1566 1567 1568 1569 1570 1570 1571 1572 1572 1573 1573 1573 1574 1574 1574 1575 1575 1576 1576 1577 1577 1578 1578 1579 1580 1580 1581 1582 1582 1583 1584 1584 1585 1586 1587 1587 1588 1589 1589
1562 1563 1564 1565 1566 1566 1567 1568 1569 1569 1570 1570 1571 1571 1572 1572 1572 1573 1573 1573 1574 1574 1575 1575 1576 1576 1577 1577 1578 1578 1579 1580 1580 1581 1582 1582 1583 1583 1584 1585 1585 1586 1587
1561 1562 1563 1564 1564 1565 1566 1567 1567 1568 1569 1569 1570 1570 1570 1570 1570 1571 1571 1571 1572 1572 1573 1573 1574 1574 1575 1575 1576 1576 1577 1577 1578 1578 1579 1580 1580 1581 1581 1582 1583 1583 1584
1560 1561 1562 1562 1563 1564 1564 1565 1566 1566 1567 1567 1568 1568 1568 1568 1568 1569 1569 1569 1570 1570 1571 1571 1571 1572 1572 1573 1573 1573 1574 1574 1575 1576 1576 1577 1577 1578 1578 1579 1579 1580 1581
1559 1560 1561 1561 1562 1563 1563 1564 1564 1565 1565 1566 1566 1566 1566 1567 1566 1566 1567 1567 1568 1568 1568 1569 1569 1569 1569 1569 1570 1570 1571 1571 1572 1572 1573 1573 1574 1574 1575 1575 1576 1577 1577
1558 1558 1559 1560 1560 1561 1562 1562 1563 1563 1563 1563 1564 1565 1565 1564 1564 1564 1564 1565 1565 1565 1566 1566 1566 1566 1566 1566 1567 1567 1567 1568 1568 1569 1569 1570 1570 1571 1571 1572 1572 1573 1573
1556 1557 1557 1558 1559 1559 1560 1560 1561 1561 1561 1561 1562 1562 1563 1562 1563 1562 1562 1562 1563 1563 1563 1563 1563 1563 1563 1563 1563 1564 1564 1565 1565 1565 1566 1566 1566 1567 1567 1568 1568 1569 1569
1555 1555 1556 1556 1557 1557 1558 1558 1558 1559 1559 1559 1559 1559 1559 1560 1560 1560 1559 1559 1560 1560 1560 1560 1560 1560 1560 1560 1560 1560 1561 1561 1561 1562 1562 1562 1562 1563 1563 1564 1564 1564 1565
1553 1553 1554 1555 1555 1555 1555 1556 1556 1556 1556 1556 1556 1556 1556 1556 1556 1557 1556 1556 1556 1557 1557 1557 1557 1557 1557 1557 1557 1557 1557 1557 1557 1558 1558 1558 1558 1559 1559 1559 1560 1560 1560
1551 1552 1552 1553 1554 1554 1554 1554 1553 1553 1553 1553 1553 1553 1553 1553 1554 1554 1554 1554 1554 1554 1554 1554 1554 1554 1554 1554 1554 1554 1554 1553 1553 1554 1554 1554 1554 1554 1554 1555 1555 1555 1556
1549 1550 1551 1551 1551 1552 1552 1551 1551 1551 1551 1550 1550 1550 1550 1550 1550 1551 1551 1551 1551 1551 1551 1551 1551 1551 1551 1551 1551 1550 1550 1550 1550 1549 1550 1550 1550 1550 1550 1550 1550 1551 1551
1547 1548 1549 1549 1549 1549 1549 1549 1549 1548 1548 1547 1547 1546 1546 1546 1546 1547 1547 1548 1549 1548 1547 1548 1548 1548 1548 1548 1548 1547 1546 1546 1546 1546 1546 1546 1546 1546 1546 1546 1546 1546 1546
1545 1546 1546 1547 1547 1547 1547 1547 1546 1546 1545 1544 1543 1543 1542 1543 1543 1543 1544 1544 1545 1545 1544 1544 1545 1545 1545 1545 1544 1544 1543 1543 1543 1543 1542 1542 1542 1542 1542 1542 1542 1542 1542
1543 1544 1544 1544 1544 1544 1544 1544 1544 1543 1542 1541 1540 1540 1539 1540 1540 1540 1540 1540 1541 1541 1541 1541 1541 1542 1542 1542 1541 1541 1540 1540 1540 1540 1539 1539 1539 1539 1538 1538 1538 1538 1538
1541 1541 1542 1542 1542 1542 1542 1541 1541 1540 1540 1539 1538 1537 1537 1537 1537 1537 1537 1537 1537 1537 1537 1537 1538 1538 1539 1539 1539 1538 1538 1538 1537 1537 1536 1536 1536 1536 1535 1535 1535 1535 1535
1539 1539 1540 1540 1540 1540 1539 1539 1539 1538 1537 1536 1535 1535 1534 1534 1533 1533 1534 1534 1534 1534 1534 1534 1534 1535 1536 1536 1536 1536 1536 1535 1535 1535 1534 1534 1534 1533 1533 1532 1532 1532 1532
1537 1537 1538 1538 1538 1538 1537 1537 1536 1536 1535 1534 1533 1532 1532 1531 1531 1531 1531 1531 1531 1531 1531 1531 1531 1532 1533 1533 1534 1533 1533 1533 1533 1533 1532 1532 1531 1531 1531 1530 1530 1530 1530
1535 1535 1536 1536 1536 1536 1535 1535 1534 1534 1533 1532 1531 1530 1529 1529 1528 1528 1528 1528 1528 1528 1528 1528 1529 1529 1530 1530 1531 1531 1531 1531 1531 1530 1530 1530 1529 1529 1529 1528 1528 1527 1527
1533 1533 1533 1533 1533 1533 1533 1532 1532 1531 1531 1530 1529 1528 1527 1526 1526 1526 1525 1525 1525 1525 1525 1526 1526 1527 1527 1528 1528 1528 1528 1528 1528 1529 1528 1528 1528 1527 1527 1526 1526 1525 1525
1530 1531 1531 1531 1530 1530 1530 1530 1529 1529 1528 1527 1526 1526 1525 1524 1524 1523 1523 1523 1523 1523 1524 1524 1524 1524 1525 1525 1525 1526 1526 1526 1526 1526 1526 1525 1526 1525 1525 1524 1524 1524 1523
1528 1528 1528 1528 1527 1527 1527 1527 1526 1526 1525 1525 1524 1523 1523 1522 1522 1522 1521 1521 1521 1522 1522 1522 1523 1523 1523 1523 1523 1524 1524 1524 1524 1524 1524 1524 1523 1523 1523 1522 1522 1522 1521
1525 1526 1526 1525 1525 1525 1525 1524 1524 1523 1523 1522 1522 1522 1521 1521 1521 1520 1520 1520 1520 1520 1521 1521 1521 1521 1521 1521 1521 1521 1521 1521 1521 1522 1522 1522 1521 1521 1521 1520 1520 1520 1519
1523 1524 1524 1523 1523 1523 1522 1522 1522 1521 1521 1520 1520 1520 1520 1520 1520 1519 1519 1519 1519 1519 1519 1519 1520 1520 1519 1519 1519 1520 1520 1520 1519 1520 1520 1520 1519 1519 1519 1518 1518 1518 1517